Overview Statistics Trail Chart Weather Telemetry Raw packets
 

This is the latest recevied weather packets stored in our database for station/object KI4KWR-1. If no packets are shown the sender has not sent any weather packets the latest 10 day(s).

<< 2 3 4 5 6 7 8 >>
Time Temp. Humidity Pressure Rain* Wind** Luminosity Snow
1788538503 34.44° C 57% 988.4 hPa 0 mm - - -
1788537604 33.89° C 57% 988.4 hPa 0 mm - - -
1788536704 32.78° C 60% 988.4 hPa 0 mm - - -
1788535804 33.33° C 59% 988.3 hPa 0 mm - - -
1788534904 31.67° C 63% 988.4 hPa 0 mm - - -
1788534003 31.11° C 64% 988.3 hPa 0 mm - - -
1788533103 30.56° C 66% 988.2 hPa 0 mm - - -
1788532204 30° C 68% 988 hPa 0 mm - - -
1788531304 29.44° C 71% 988.2 hPa 0 mm - - -
1788530404 28.89° C 73% 988.1 hPa 0 mm - - -
1788529504 28.33° C 74% 988.1 hPa 0 mm - - -
1788528604 27.22° C 81% 988 hPa 0 mm - - -
1788527704 26.11° C 83% 988 hPa 0 mm - - -
1788526803 25.56° C 85% 988.1 hPa 0 mm - - -
1788525904 25° C 88% 988 hPa 0 mm - - -
1788525004 23.89° C 90% 987.9 hPa 0 mm - - -
1788524103 23.33° C 91% 987.8 hPa 0 mm - - -
1788523203 22.78° C 91% 987.6 hPa 0 mm - - -
1788522304 22.22° C 91% 987.4 hPa 0 mm - - -
1788521403 22.22° C 91% 987.3 hPa 0 mm - - -
1788520503 22.22° C 91% 987.2 hPa 0 mm - - -
1788519604 22.22° C 91% 987 hPa 0 mm - - -
1788518703 22.22° C 91% 987.1 hPa 0 mm - - -
1788517804 22.22° C 91% 987 hPa 0 mm - - -
1788516904 22.22° C 91% 986.9 hPa 0 mm - - -

* Rain latest hour (hover to see other rain measurements)
** Current wind speed in m/s (hover to see current wind gust speed)